Year,Month,Day,Hour,Minute,Value (Times are PST for insolation in W/m^2)
2020,07,09,00,00,0.00
2020,07,09,00,01,0.00
2020,07,09,00,02,0.00
2020,07,09,00,03,0.00
2020,07,09,00,04,0.00
2020,07,09,00,05,0.00
2020,07,09,00,06,0.00
2020,07,09,00,07,0.00
2020,07,09,00,08,0.00
2020,07,09,00,09,0.00
2020,07,09,00,10,0.00
2020,07,09,00,11,0.00
2020,07,09,00,12,0.00
2020,07,09,00,13,0.00
2020,07,09,00,14,0.00
2020,07,09,00,15,0.00
2020,07,09,00,16,0.00
2020,07,09,00,17,0.00
2020,07,09,00,18,0.00
2020,07,09,00,19,0.00
2020,07,09,00,20,0.00
2020,07,09,00,21,0.00
2020,07,09,00,22,0.00
2020,07,09,00,23,0.00
2020,07,09,00,24,0.00
2020,07,09,00,25,0.00
2020,07,09,00,26,0.00
2020,07,09,00,27,0.00
2020,07,09,00,28,0.00
2020,07,09,00,29,0.00
2020,07,09,00,30,0.00
2020,07,09,00,31,0.00
2020,07,09,00,32,0.00
2020,07,09,00,33,0.00
2020,07,09,00,34,0.00
2020,07,09,00,35,0.00
2020,07,09,00,36,0.00
2020,07,09,00,37,0.00
2020,07,09,00,38,0.00
2020,07,09,00,39,0.00
2020,07,09,00,40,0.00
2020,07,09,00,41,0.00
2020,07,09,00,42,0.00
2020,07,09,00,43,0.00
2020,07,09,00,44,0.00
2020,07,09,00,45,0.00
2020,07,09,00,46,0.00
2020,07,09,00,47,0.00
2020,07,09,00,48,0.00
2020,07,09,00,49,0.00
2020,07,09,00,50,0.00
2020,07,09,00,51,0.00
2020,07,09,00,52,0.00
2020,07,09,00,53,0.00
2020,07,09,00,54,0.00
2020,07,09,00,55,0.00
2020,07,09,00,56,0.00
2020,07,09,00,57,0.00
2020,07,09,00,58,0.00
2020,07,09,00,59,0.00
2020,07,09,01,00,0.00
2020,07,09,01,01,0.00
2020,07,09,01,02,0.00
2020,07,09,01,03,0.00
2020,07,09,01,04,0.00
2020,07,09,01,05,0.00
2020,07,09,01,06,0.00
2020,07,09,01,07,0.00
2020,07,09,01,08,0.00
2020,07,09,01,09,0.00
2020,07,09,01,10,0.00
2020,07,09,01,11,0.00
2020,07,09,01,12,0.00
2020,07,09,01,13,0.00
2020,07,09,01,14,0.00
2020,07,09,01,15,0.00
2020,07,09,01,16,0.00
2020,07,09,01,17,0.00
2020,07,09,01,18,0.00
2020,07,09,01,19,0.00
2020,07,09,01,20,0.00
2020,07,09,01,21,0.00
2020,07,09,01,22,0.00
2020,07,09,01,23,0.00
2020,07,09,01,24,0.00
2020,07,09,01,25,0.00
2020,07,09,01,26,0.00
2020,07,09,01,27,0.00
2020,07,09,01,28,0.00
2020,07,09,01,29,0.00
2020,07,09,01,30,0.00
2020,07,09,01,31,0.00
2020,07,09,01,32,0.00
2020,07,09,01,33,0.00
2020,07,09,01,34,0.00
2020,07,09,01,35,0.00
2020,07,09,01,36,0.00
2020,07,09,01,37,0.00
2020,07,09,01,38,0.00
2020,07,09,01,39,0.00
2020,07,09,01,40,0.00
2020,07,09,01,41,0.00
2020,07,09,01,42,0.00
2020,07,09,01,43,0.00
2020,07,09,01,44,0.00
2020,07,09,01,45,0.00
2020,07,09,01,46,0.00
2020,07,09,01,47,0.00
2020,07,09,01,48,0.00
2020,07,09,01,49,0.00
2020,07,09,01,50,0.00
2020,07,09,01,51,0.00
2020,07,09,01,52,0.00
2020,07,09,01,53,0.00
2020,07,09,01,54,0.00
2020,07,09,01,55,0.00
2020,07,09,01,56,0.00
2020,07,09,01,57,0.00
2020,07,09,01,58,0.00
2020,07,09,01,59,0.00
2020,07,09,02,00,0.00
2020,07,09,02,01,0.00
2020,07,09,02,02,0.00
2020,07,09,02,03,0.00
2020,07,09,02,04,0.00
2020,07,09,02,05,0.00
2020,07,09,02,06,0.00
2020,07,09,02,07,0.00
2020,07,09,02,08,0.00
2020,07,09,02,09,0.00
2020,07,09,02,10,0.00
2020,07,09,02,11,0.00
2020,07,09,02,12,0.00
2020,07,09,02,13,0.00
2020,07,09,02,14,0.00
2020,07,09,02,15,0.00
2020,07,09,02,16,0.00
2020,07,09,02,17,0.00
2020,07,09,02,18,0.00
2020,07,09,02,19,0.00
2020,07,09,02,20,0.00
2020,07,09,02,21,0.00
2020,07,09,02,22,0.00
2020,07,09,02,23,0.00
2020,07,09,02,24,0.00
2020,07,09,02,25,0.00
2020,07,09,02,26,0.00
2020,07,09,02,27,0.00
2020,07,09,02,28,0.00
2020,07,09,02,29,0.00
2020,07,09,02,30,0.00
2020,07,09,02,31,0.00
2020,07,09,02,32,0.00
2020,07,09,02,33,0.00
2020,07,09,02,34,0.00
2020,07,09,02,35,0.00
2020,07,09,02,36,0.00
2020,07,09,02,37,0.00
2020,07,09,02,38,0.00
2020,07,09,02,39,0.00
2020,07,09,02,40,0.00
2020,07,09,02,41,0.00
2020,07,09,02,42,0.00
2020,07,09,02,43,0.00
2020,07,09,02,44,0.00
2020,07,09,02,45,0.00
2020,07,09,02,46,0.00
2020,07,09,02,47,0.00
2020,07,09,02,48,0.00
2020,07,09,02,49,0.00
2020,07,09,02,50,0.00
2020,07,09,02,51,0.00
2020,07,09,02,52,0.00
2020,07,09,02,53,0.00
2020,07,09,02,54,0.00
2020,07,09,02,55,0.00
2020,07,09,02,56,0.00
2020,07,09,02,57,0.00
2020,07,09,02,58,0.00
2020,07,09,02,59,0.00
2020,07,09,03,00,0.00
2020,07,09,03,01,0.00
2020,07,09,03,02,0.00
2020,07,09,03,03,0.00
2020,07,09,03,04,0.00
2020,07,09,03,05,0.00
2020,07,09,03,06,0.00
2020,07,09,03,07,0.00
2020,07,09,03,08,0.00
2020,07,09,03,09,0.00
2020,07,09,03,10,0.00
2020,07,09,03,11,0.00
2020,07,09,03,12,0.00
2020,07,09,03,13,0.00
2020,07,09,03,14,0.00
2020,07,09,03,15,0.00
2020,07,09,03,16,0.00
2020,07,09,03,17,0.00
2020,07,09,03,18,0.00
2020,07,09,03,19,0.00
2020,07,09,03,20,0.00
2020,07,09,03,21,0.00
2020,07,09,03,22,0.00
2020,07,09,03,23,0.00
2020,07,09,03,24,0.00
2020,07,09,03,25,0.00
2020,07,09,03,26,0.00
2020,07,09,03,27,0.00
2020,07,09,03,28,0.00
2020,07,09,03,29,0.00
2020,07,09,03,30,0.00
2020,07,09,03,31,0.00
2020,07,09,03,32,0.00
2020,07,09,03,33,0.00
2020,07,09,03,34,0.00
2020,07,09,03,35,0.00
2020,07,09,03,36,0.00
2020,07,09,03,37,0.00
2020,07,09,03,38,0.00
2020,07,09,03,39,0.00
2020,07,09,03,40,0.00
2020,07,09,03,41,0.00
2020,07,09,03,42,0.00
2020,07,09,03,43,0.00
2020,07,09,03,44,0.00
2020,07,09,03,45,0.00
2020,07,09,03,46,0.00
2020,07,09,03,47,0.00
2020,07,09,03,48,0.00
2020,07,09,03,49,0.00
2020,07,09,03,50,0.00
2020,07,09,03,51,0.00
2020,07,09,03,52,0.00
2020,07,09,03,53,0.00
2020,07,09,03,54,0.00
2020,07,09,03,55,0.00
2020,07,09,03,56,0.00
2020,07,09,03,57,0.00
2020,07,09,03,58,0.00
2020,07,09,03,59,0.00
2020,07,09,04,00,0.00
2020,07,09,04,01,0.00
2020,07,09,04,02,0.00
2020,07,09,04,03,0.00
2020,07,09,04,04,0.00
2020,07,09,04,05,0.00
2020,07,09,04,06,0.00
2020,07,09,04,07,0.00
2020,07,09,04,08,0.00
2020,07,09,04,09,0.00
2020,07,09,04,10,0.00
2020,07,09,04,11,0.00
2020,07,09,04,12,0.00
2020,07,09,04,13,0.00
2020,07,09,04,14,0.00
2020,07,09,04,15,0.00
2020,07,09,04,16,0.00
2020,07,09,04,17,0.00
2020,07,09,04,18,0.00
2020,07,09,04,19,0.00
2020,07,09,04,20,0.00
2020,07,09,04,21,0.00
2020,07,09,04,22,0.00
2020,07,09,04,23,0.00
2020,07,09,04,24,0.00
2020,07,09,04,25,0.00
2020,07,09,04,26,0.00
2020,07,09,04,27,0.00
2020,07,09,04,28,0.00
2020,07,09,04,29,0.00
2020,07,09,04,30,0.00
2020,07,09,04,31,0.00
2020,07,09,04,32,0.00
2020,07,09,04,33,0.00
2020,07,09,04,34,0.00
2020,07,09,04,35,0.00
2020,07,09,04,36,0.00
2020,07,09,04,37,0.00
2020,07,09,04,38,0.00
2020,07,09,04,39,0.00
2020,07,09,04,40,0.00
2020,07,09,04,41,0.00
2020,07,09,04,42,0.00
2020,07,09,04,43,0.00
2020,07,09,04,44,0.00
2020,07,09,04,45,0.00
2020,07,09,04,46,0.00
2020,07,09,04,47,0.00
2020,07,09,04,48,0.00
2020,07,09,04,49,0.00
2020,07,09,04,50,0.00
2020,07,09,04,51,0.00
2020,07,09,04,52,0.00
2020,07,09,04,53,0.00
2020,07,09,04,54,0.00
2020,07,09,04,55,0.00
2020,07,09,04,56,0.00
2020,07,09,04,57,0.00
2020,07,09,04,58,0.00
2020,07,09,04,59,0.00
2020,07,09,05,00,0.00
2020,07,09,05,01,0.00
2020,07,09,05,02,0.00
2020,07,09,05,03,0.00
2020,07,09,05,04,0.00
2020,07,09,05,05,0.00
2020,07,09,05,06,0.00
2020,07,09,05,07,0.00
2020,07,09,05,08,0.00
2020,07,09,05,09,0.00
2020,07,09,05,10,0.00
2020,07,09,05,11,0.00
2020,07,09,05,12,0.00
2020,07,09,05,13,0.00
2020,07,09,05,14,0.00
2020,07,09,05,15,0.00
2020,07,09,05,16,0.00
2020,07,09,05,17,0.00
2020,07,09,05,18,0.00
2020,07,09,05,19,0.00
2020,07,09,05,20,0.00
2020,07,09,05,21,0.00
2020,07,09,05,22,0.00
2020,07,09,05,23,0.00
2020,07,09,05,24,0.00
2020,07,09,05,25,0.00
2020,07,09,05,26,0.00
2020,07,09,05,27,0.00
2020,07,09,05,28,0.00
2020,07,09,05,29,0.00
2020,07,09,05,30,0.00
2020,07,09,05,31,0.00
2020,07,09,05,32,0.00
2020,07,09,05,33,0.00
2020,07,09,05,34,0.00
2020,07,09,05,35,0.00
2020,07,09,05,36,0.00
2020,07,09,05,37,0.00
2020,07,09,05,38,0.00
2020,07,09,05,39,0.00
2020,07,09,05,40,0.00
2020,07,09,05,41,0.00
2020,07,09,05,42,0.00
2020,07,09,05,43,0.00
2020,07,09,05,44,0.00
2020,07,09,05,45,0.00
2020,07,09,05,46,0.00
2020,07,09,05,47,0.00
2020,07,09,05,48,0.00
2020,07,09,05,49,0.00
2020,07,09,05,50,0.00
2020,07,09,05,51,2.60
2020,07,09,05,52,5.00
2020,07,09,05,53,5.00
2020,07,09,05,54,5.00
2020,07,09,05,55,5.00
2020,07,09,05,56,5.00
2020,07,09,05,57,5.00
2020,07,09,05,58,5.00
2020,07,09,05,59,5.00
2020,07,09,06,00,5.00
2020,07,09,06,01,5.00
2020,07,09,06,02,5.00
2020,07,09,06,03,3.50
2020,07,09,06,04,0.00
2020,07,09,06,05,0.00
2020,07,09,06,06,0.00
2020,07,09,06,07,0.00
2020,07,09,06,08,4.40
2020,07,09,06,09,5.00
2020,07,09,06,10,5.00
2020,07,09,06,11,5.00
2020,07,09,06,12,5.00
2020,07,09,06,13,6.30
2020,07,09,06,14,7.00
2020,07,09,06,15,8.90
2020,07,09,06,16,9.30
2020,07,09,06,17,11.00
2020,07,09,06,18,11.00
2020,07,09,06,19,11.00
2020,07,09,06,20,11.00
2020,07,09,06,21,11.80
2020,07,09,06,22,12.00
2020,07,09,06,23,12.30
2020,07,09,06,24,14.00
2020,07,09,06,25,14.00
2020,07,09,06,26,13.00
2020,07,09,06,27,12.00
2020,07,09,06,28,11.20
2020,07,09,06,29,9.10
2020,07,09,06,30,7.00
2020,07,09,06,31,7.00
2020,07,09,06,32,6.20
2020,07,09,06,33,5.00
2020,07,09,06,34,5.00
2020,07,09,06,35,5.00
2020,07,09,06,36,6.80
2020,07,09,06,37,9.30
2020,07,09,06,38,11.00
2020,07,09,06,39,11.00
2020,07,09,06,40,11.50
2020,07,09,06,41,12.00
2020,07,09,06,42,12.00
2020,07,09,06,43,12.10
2020,07,09,06,44,14.30
2020,07,09,06,45,16.50
2020,07,09,06,46,18.40
2020,07,09,06,47,19.00
2020,07,09,06,48,20.30
2020,07,09,06,49,22.60
2020,07,09,06,50,24.80
2020,07,09,06,51,26.00
2020,07,09,06,52,26.00
2020,07,09,06,53,26.80
2020,07,09,06,54,29.00
2020,07,09,06,55,31.30
2020,07,09,06,56,34.30
2020,07,09,06,57,36.80
2020,07,09,06,58,39.40
2020,07,09,06,59,43.00
2020,07,09,07,00,47.10
2020,07,09,07,01,49.00
2020,07,09,07,02,49.00
2020,07,09,07,03,52.10
2020,07,09,07,04,55.70
2020,07,09,07,05,62.40
2020,07,09,07,06,65.50
2020,07,09,07,07,68.10
2020,07,09,07,08,72.10
2020,07,09,07,09,77.10
2020,07,09,07,10,82.90
2020,07,09,07,11,87.60
2020,07,09,07,12,92.00
2020,07,09,07,13,100.30
2020,07,09,07,14,109.60
2020,07,09,07,15,115.00
2020,07,09,07,16,114.70
2020,07,09,07,17,113.30
2020,07,09,07,18,113.90
2020,07,09,07,19,113.30
2020,07,09,07,20,109.00
2020,07,09,07,21,109.70
2020,07,09,07,22,108.90
2020,07,09,07,23,103.70
2020,07,09,07,24,98.10
2020,07,09,07,25,93.40
2020,07,09,07,26,89.80
2020,07,09,07,27,81.20
2020,07,09,07,28,74.40
2020,07,09,07,29,72.00
2020,07,09,07,30,73.30
2020,07,09,07,31,76.30
2020,07,09,07,32,76.10
2020,07,09,07,33,71.70
2020,07,09,07,34,69.70
2020,07,09,07,35,69.40
2020,07,09,07,36,70.00
2020,07,09,07,37,72.50
2020,07,09,07,38,77.90
2020,07,09,07,39,83.40
2020,07,09,07,40,84.30
2020,07,09,07,41,86.50
2020,07,09,07,42,88.70
2020,07,09,07,43,90.50
2020,07,09,07,44,91.00
2020,07,09,07,45,91.00
2020,07,09,07,46,94.60
2020,07,09,07,47,96.70
2020,07,09,07,48,95.50
2020,07,09,07,49,97.00
2020,07,09,07,50,94.90
2020,07,09,07,51,93.00
2020,07,09,07,52,96.90
2020,07,09,07,53,107.80
2020,07,09,07,54,122.10
2020,07,09,07,55,137.90
2020,07,09,07,56,149.00
2020,07,09,07,57,158.30
2020,07,09,07,58,171.40
2020,07,09,07,59,181.00
2020,07,09,08,00,187.40
2020,07,09,08,01,195.30
2020,07,09,08,02,197.00
2020,07,09,08,03,199.60
2020,07,09,08,04,207.60
2020,07,09,08,05,219.80
2020,07,09,08,06,233.60
2020,07,09,08,07,234.20
2020,07,09,08,08,238.80
2020,07,09,08,09,264.10
2020,07,09,08,10,267.20
2020,07,09,08,11,208.70
2020,07,09,08,12,180.70
2020,07,09,08,13,174.40
2020,07,09,08,14,182.40
2020,07,09,08,15,195.20
2020,07,09,08,16,241.90
2020,07,09,08,17,213.40
2020,07,09,08,18,213.80
2020,07,09,08,19,219.30
2020,07,09,08,20,220.80
2020,07,09,08,21,207.30
2020,07,09,08,22,211.30
2020,07,09,08,23,209.70
2020,07,09,08,24,196.30
2020,07,09,08,25,182.80
2020,07,09,08,26,174.00
2020,07,09,08,27,171.20
2020,07,09,08,28,159.00
2020,07,09,08,29,148.30
2020,07,09,08,30,145.00
2020,07,09,08,31,146.40
2020,07,09,08,32,146.10
2020,07,09,08,33,162.00
2020,07,09,08,34,167.40
2020,07,09,08,35,144.10
2020,07,09,08,36,150.20
2020,07,09,08,37,164.00
2020,07,09,08,38,169.80
2020,07,09,08,39,172.60
2020,07,09,08,40,175.30
2020,07,09,08,41,197.80
2020,07,09,08,42,279.10
2020,07,09,08,43,283.30
2020,07,09,08,44,256.70
2020,07,09,08,45,242.80
2020,07,09,08,46,242.60
2020,07,09,08,47,248.00
2020,07,09,08,48,255.40
2020,07,09,08,49,279.20
2020,07,09,08,50,241.00
2020,07,09,08,51,231.90
2020,07,09,08,52,204.90
2020,07,09,08,53,193.30
2020,07,09,08,54,189.30
2020,07,09,08,55,199.30
2020,07,09,08,56,210.00
2020,07,09,08,57,222.10
2020,07,09,08,58,245.70
2020,07,09,08,59,279.00
2020,07,09,09,00,338.60
2020,07,09,09,01,354.00
2020,07,09,09,02,334.00
2020,07,09,09,03,342.20
2020,07,09,09,04,555.00
2020,07,09,09,05,475.60
2020,07,09,09,06,275.20
2020,07,09,09,07,248.10
2020,07,09,09,08,232.30
2020,07,09,09,09,235.20
2020,07,09,09,10,273.30
2020,07,09,09,11,239.20
2020,07,09,09,12,203.80
2020,07,09,09,13,246.00
2020,07,09,09,14,309.00
2020,07,09,09,15,273.70
2020,07,09,09,16,221.90
2020,07,09,09,17,169.70
2020,07,09,09,18,149.00
2020,07,09,09,19,150.60
2020,07,09,09,20,160.70
2020,07,09,09,21,190.50
2020,07,09,09,22,221.60
2020,07,09,09,23,222.80
2020,07,09,09,24,219.80
2020,07,09,09,25,209.70
2020,07,09,09,26,204.30
2020,07,09,09,27,215.10
2020,07,09,09,28,220.50
2020,07,09,09,29,220.00
2020,07,09,09,30,223.90
2020,07,09,09,31,243.40
2020,07,09,09,32,271.60
2020,07,09,09,33,324.30
2020,07,09,09,34,330.00
2020,07,09,09,35,347.60
2020,07,09,09,36,361.30
2020,07,09,09,37,330.40
2020,07,09,09,38,298.90
2020,07,09,09,39,298.80
2020,07,09,09,40,312.40
2020,07,09,09,41,316.30
2020,07,09,09,42,287.80
2020,07,09,09,43,256.30
2020,07,09,09,44,241.40
2020,07,09,09,45,242.60
2020,07,09,09,46,240.30
2020,07,09,09,47,221.40
2020,07,09,09,48,198.00
2020,07,09,09,49,165.50
2020,07,09,09,50,153.00
2020,07,09,09,51,167.00
2020,07,09,09,52,215.40
2020,07,09,09,53,234.60
2020,07,09,09,54,316.10
2020,07,09,09,55,334.40
2020,07,09,09,56,348.00
2020,07,09,09,57,334.00
2020,07,09,09,58,317.70
2020,07,09,09,59,319.10
2020,07,09,10,00,366.90
2020,07,09,10,01,424.00
2020,07,09,10,02,424.00
2020,07,09,10,03,426.60
2020,07,09,10,04,445.40
2020,07,09,10,05,423.90
2020,07,09,10,06,390.10
2020,07,09,10,07,389.20
2020,07,09,10,08,394.40
2020,07,09,10,09,386.30
2020,07,09,10,10,380.50
2020,07,09,10,11,383.10
2020,07,09,10,12,402.90
2020,07,09,10,13,432.40
2020,07,09,10,14,471.90
2020,07,09,10,15,490.90
2020,07,09,10,16,474.70
2020,07,09,10,17,467.60
2020,07,09,10,18,488.60
2020,07,09,10,19,540.20
2020,07,09,10,20,568.10
2020,07,09,10,21,988.00
2020,07,09,10,22,988.00
2020,07,09,10,23,786.50
2020,07,09,10,24,445.90
2020,07,09,10,25,434.70
2020,07,09,10,26,489.90
2020,07,09,10,27,484.80
2020,07,09,10,28,482.00
2020,07,09,10,29,482.00
2020,07,09,10,30,482.00
2020,07,09,10,31,448.80
2020,07,09,10,32,450.10
2020,07,09,10,33,406.80
2020,07,09,10,34,385.00
2020,07,09,10,35,392.40
2020,07,09,10,36,433.60
2020,07,09,10,37,510.60
2020,07,09,10,38,539.60
2020,07,09,10,39,482.90
2020,07,09,10,40,529.30
2020,07,09,10,41,532.90
2020,07,09,10,42,552.60
2020,07,09,10,43,677.00
2020,07,09,10,44,587.00
2020,07,09,10,45,433.00
2020,07,09,10,46,428.90
2020,07,09,10,47,420.00
2020,07,09,10,48,448.20
2020,07,09,10,49,394.10
2020,07,09,10,50,423.40
2020,07,09,10,51,473.00
2020,07,09,10,52,473.00
2020,07,09,10,53,473.00
2020,07,09,10,54,473.00
2020,07,09,10,55,705.90
2020,07,09,10,56,735.00
2020,07,09,10,57,764.00
2020,07,09,10,58,887.70
2020,07,09,10,59,947.00
2020,07,09,11,00,878.40
2020,07,09,11,01,838.00
2020,07,09,11,02,735.70
2020,07,09,11,03,685.70
2020,07,09,11,04,612.30
2020,07,09,11,05,612.80
2020,07,09,11,06,633.30
2020,07,09,11,07,638.70
2020,07,09,11,08,610.80
2020,07,09,11,09,574.60
2020,07,09,11,10,546.00
2020,07,09,11,11,564.30
2020,07,09,11,12,568.00
2020,07,09,11,13,561.30
2020,07,09,11,14,545.60
2020,07,09,11,15,549.30
2020,07,09,11,16,570.70
2020,07,09,11,17,614.20
2020,07,09,11,18,628.70
2020,07,09,11,19,558.70
2020,07,09,11,20,552.30
2020,07,09,11,21,556.60
2020,07,09,11,22,561.80
2020,07,09,11,23,534.70
2020,07,09,11,24,513.50
2020,07,09,11,25,522.00
2020,07,09,11,26,649.80
2020,07,09,11,27,869.60
2020,07,09,11,28,872.00
2020,07,09,11,29,872.00
2020,07,09,11,30,864.20
2020,07,09,11,31,661.40
2020,07,09,11,32,666.40
2020,07,09,11,33,673.00
2020,07,09,11,34,673.00
2020,07,09,11,35,673.00
2020,07,09,11,36,673.00
2020,07,09,11,37,673.00
2020,07,09,11,38,673.00
2020,07,09,11,39,676.10
2020,07,09,11,40,684.00
2020,07,09,11,41,588.20
2020,07,09,11,42,506.00
2020,07,09,11,43,480.60
2020,07,09,11,44,476.60
2020,07,09,11,45,453.20
2020,07,09,11,46,445.90
2020,07,09,11,47,453.20
2020,07,09,11,48,432.80
2020,07,09,11,49,394.90
2020,07,09,11,50,366.70
2020,07,09,11,51,337.10
2020,07,09,11,52,296.80
2020,07,09,11,53,259.20
2020,07,09,11,54,225.90
2020,07,09,11,55,192.00
2020,07,09,11,56,159.70
2020,07,09,11,57,132.70
2020,07,09,11,58,114.70
2020,07,09,11,59,96.80
2020,07,09,12,00,88.40
2020,07,09,12,01,82.00
2020,07,09,12,02,77.90
2020,07,09,12,03,78.30
2020,07,09,12,04,82.00
2020,07,09,12,05,85.90
2020,07,09,12,06,90.20
2020,07,09,12,07,92.00
2020,07,09,12,08,96.90
2020,07,09,12,09,104.70
2020,07,09,12,10,114.70
2020,07,09,12,11,123.20
2020,07,09,12,12,131.70
2020,07,09,12,13,137.80
2020,07,09,12,14,143.60
2020,07,09,12,15,148.40
2020,07,09,12,16,150.00
2020,07,09,12,17,154.10
2020,07,09,12,18,160.50
2020,07,09,12,19,166.60
2020,07,09,12,20,171.40
2020,07,09,12,21,174.50
2020,07,09,12,22,176.70
2020,07,09,12,23,178.00
2020,07,09,12,24,178.00
2020,07,09,12,25,178.00
2020,07,09,12,26,178.00
2020,07,09,12,27,178.00
2020,07,09,12,28,178.30
2020,07,09,12,29,179.80
2020,07,09,12,30,181.00
2020,07,09,12,31,179.70
2020,07,09,12,32,178.20
2020,07,09,12,33,172.50
2020,07,09,12,34,166.40
2020,07,09,12,35,162.20
2020,07,09,12,36,158.40
2020,07,09,12,37,156.00
2020,07,09,12,38,157.30
2020,07,09,12,39,161.90
2020,07,09,12,40,166.90
2020,07,09,12,41,172.00
2020,07,09,12,42,179.50
2020,07,09,12,43,183.80
2020,07,09,12,44,185.00
2020,07,09,12,45,183.70
2020,07,09,12,46,183.00
2020,07,09,12,47,179.40
2020,07,09,12,48,179.60
2020,07,09,12,49,183.80
2020,07,09,12,50,188.40
2020,07,09,12,51,194.60
2020,07,09,12,52,203.00
2020,07,09,12,53,209.90
2020,07,09,12,54,219.30
2020,07,09,12,55,230.50
2020,07,09,12,56,240.80
2020,07,09,12,57,246.80
2020,07,09,12,58,245.90
2020,07,09,12,59,239.30
2020,07,09,13,00,231.60
2020,07,09,13,01,230.10
2020,07,09,13,02,232.30
2020,07,09,13,03,234.00
2020,07,09,13,04,235.20
2020,07,09,13,05,240.60
2020,07,09,13,06,245.30
2020,07,09,13,07,247.60
2020,07,09,13,08,254.90
2020,07,09,13,09,266.30
2020,07,09,13,10,277.90
2020,07,09,13,11,291.10
2020,07,09,13,12,300.60
2020,07,09,13,13,308.70
2020,07,09,13,14,311.00
2020,07,09,13,15,301.60
2020,07,09,13,16,287.00
2020,07,09,13,17,279.50
2020,07,09,13,18,254.70
2020,07,09,13,19,249.00
2020,07,09,13,20,249.30
2020,07,09,13,21,253.90
2020,07,09,13,22,263.90
2020,07,09,13,23,285.70
2020,07,09,13,24,304.90
2020,07,09,13,25,321.90
2020,07,09,13,26,345.00
2020,07,09,13,27,375.90
2020,07,09,13,28,430.70
2020,07,09,13,29,507.30
2020,07,09,13,30,475.70
2020,07,09,13,31,480.00
2020,07,09,13,32,478.40
2020,07,09,13,33,481.90
2020,07,09,13,34,504.60
2020,07,09,13,35,558.60
2020,07,09,13,36,560.30
2020,07,09,13,37,589.50
2020,07,09,13,38,780.00
2020,07,09,13,39,798.90
2020,07,09,13,40,758.00
2020,07,09,13,41,596.20
2020,07,09,13,42,486.90
2020,07,09,13,43,528.20
2020,07,09,13,44,504.00
2020,07,09,13,45,504.00
2020,07,09,13,46,514.60
2020,07,09,13,47,536.60
2020,07,09,13,48,547.00
2020,07,09,13,49,535.20
2020,07,09,13,50,508.00
2020,07,09,13,51,557.90
2020,07,09,13,52,540.10
2020,07,09,13,53,506.70
2020,07,09,13,54,516.30
2020,07,09,13,55,550.00
2020,07,09,13,56,563.00
2020,07,09,13,57,1250.10
2020,07,09,13,58,1336.00
2020,07,09,13,59,1336.00
2020,07,09,14,00,982.40
2020,07,09,14,01,461.00
2020,07,09,14,02,497.20
2020,07,09,14,03,568.20
2020,07,09,14,04,582.00
2020,07,09,14,05,582.00
2020,07,09,14,06,582.00
2020,07,09,14,07,770.90
2020,07,09,14,08,1092.00
2020,07,09,14,09,1092.00
2020,07,09,14,10,1092.00
2020,07,09,14,11,1199.50
2020,07,09,14,12,1165.00
2020,07,09,14,13,1120.30
2020,07,09,14,14,1001.40
2020,07,09,14,15,984.70
2020,07,09,14,16,1021.30
2020,07,09,14,17,1040.60
2020,07,09,14,18,1097.50
2020,07,09,14,19,1102.00
2020,07,09,14,20,1070.30
2020,07,09,14,21,995.00
2020,07,09,14,22,1093.50
2020,07,09,14,23,1162.30
2020,07,09,14,24,1151.00
2020,07,09,14,25,1101.00
2020,07,09,14,26,1092.50
2020,07,09,14,27,1103.70
2020,07,09,14,28,1101.10
2020,07,09,14,29,1107.00
2020,07,09,14,30,1107.00
2020,07,09,14,31,1059.60
2020,07,09,14,32,1046.00
2020,07,09,14,33,1046.00
2020,07,09,14,34,1046.00
2020,07,09,14,35,786.90
2020,07,09,14,36,374.20
2020,07,09,14,37,345.70
2020,07,09,14,38,348.00
2020,07,09,14,39,349.00
2020,07,09,14,40,379.40
2020,07,09,14,41,402.60
2020,07,09,14,42,424.40
2020,07,09,14,43,472.10
2020,07,09,14,44,501.00
2020,07,09,14,45,557.00
2020,07,09,14,46,481.90
2020,07,09,14,47,442.30
2020,07,09,14,48,470.70
2020,07,09,14,49,520.00
2020,07,09,14,50,520.00
2020,07,09,14,51,520.00
2020,07,09,14,52,530.10
2020,07,09,14,53,549.90
2020,07,09,14,54,489.00
2020,07,09,14,55,512.00
2020,07,09,14,56,466.00
2020,07,09,14,57,396.40
2020,07,09,14,58,389.30
2020,07,09,14,59,374.60
2020,07,09,15,00,355.80
2020,07,09,15,01,343.10
2020,07,09,15,02,328.40
2020,07,09,15,03,316.30
2020,07,09,15,04,317.20
2020,07,09,15,05,367.70
2020,07,09,15,06,427.30
2020,07,09,15,07,500.60
2020,07,09,15,08,555.00
2020,07,09,15,09,477.90
2020,07,09,15,10,471.00
2020,07,09,15,11,468.00
2020,07,09,15,12,468.00
2020,07,09,15,13,468.00
2020,07,09,15,14,439.30
2020,07,09,15,15,447.90
2020,07,09,15,16,357.20
2020,07,09,15,17,328.30
2020,07,09,15,18,320.00
2020,07,09,15,19,304.70
2020,07,09,15,20,289.20
2020,07,09,15,21,288.30
2020,07,09,15,22,301.50
2020,07,09,15,23,319.80
2020,07,09,15,24,330.00
2020,07,09,15,25,349.20
2020,07,09,15,26,377.10
2020,07,09,15,27,395.40
2020,07,09,15,28,422.60
2020,07,09,15,29,439.00
2020,07,09,15,30,443.10
2020,07,09,15,31,483.90
2020,07,09,15,32,558.70
2020,07,09,15,33,522.30
2020,07,09,15,34,478.90
2020,07,09,15,35,496.40
2020,07,09,15,36,494.10
2020,07,09,15,37,458.60
2020,07,09,15,38,434.50
2020,07,09,15,39,428.60
2020,07,09,15,40,430.00
2020,07,09,15,41,415.00
2020,07,09,15,42,387.20
2020,07,09,15,43,364.80
2020,07,09,15,44,348.10
2020,07,09,15,45,333.30
2020,07,09,15,46,318.80
2020,07,09,15,47,307.00
2020,07,09,15,48,300.10
2020,07,09,15,49,295.40
2020,07,09,15,50,295.60
2020,07,09,15,51,299.80
2020,07,09,15,52,303.60
2020,07,09,15,53,307.60
2020,07,09,15,54,309.00
2020,07,09,15,55,314.40
2020,07,09,15,56,319.60
2020,07,09,15,57,320.00
2020,07,09,15,58,320.00
2020,07,09,15,59,319.20
2020,07,09,16,00,317.00
2020,07,09,16,01,316.00
2020,07,09,16,02,316.00
2020,07,09,16,03,317.90
2020,07,09,16,04,320.30
2020,07,09,16,05,322.90
2020,07,09,16,06,325.00
2020,07,09,16,07,325.00
2020,07,09,16,08,325.00
2020,07,09,16,09,325.00
2020,07,09,16,10,327.00
2020,07,09,16,11,332.60
2020,07,09,16,12,337.30
2020,07,09,16,13,342.60
2020,07,09,16,14,345.50
2020,07,09,16,15,346.00
2020,07,09,16,16,345.20
2020,07,09,16,17,343.10
2020,07,09,16,18,340.60
2020,07,09,16,19,336.20
2020,07,09,16,20,330.80
2020,07,09,16,21,325.90
2020,07,09,16,22,321.10
2020,07,09,16,23,316.10
2020,07,09,16,24,309.50
2020,07,09,16,25,303.60
2020,07,09,16,26,299.80
2020,07,09,16,27,296.20
2020,07,09,16,28,294.40
2020,07,09,16,29,294.00
2020,07,09,16,30,294.00
2020,07,09,16,31,294.00
2020,07,09,16,32,293.70
2020,07,09,16,33,291.40
2020,07,09,16,34,289.20
2020,07,09,16,35,287.50
2020,07,09,16,36,287.60
2020,07,09,16,37,288.00
2020,07,09,16,38,291.60
2020,07,09,16,39,294.00
2020,07,09,16,40,294.00
2020,07,09,16,41,294.00
2020,07,09,16,42,294.00
2020,07,09,16,43,291.50
2020,07,09,16,44,288.40
2020,07,09,16,45,288.00
2020,07,09,16,46,287.10
2020,07,09,16,47,288.00
2020,07,09,16,48,288.80
2020,07,09,16,49,292.20
2020,07,09,16,50,296.00
2020,07,09,16,51,298.60
2020,07,09,16,52,300.80
2020,07,09,16,53,298.30
2020,07,09,16,54,292.80
2020,07,09,16,55,290.00
2020,07,09,16,56,289.00
2020,07,09,16,57,284.70
2020,07,09,16,58,279.90
2020,07,09,16,59,276.20
2020,07,09,17,00,272.00
2020,07,09,17,01,268.90
2020,07,09,17,02,258.80
2020,07,09,17,03,256.00
2020,07,09,17,04,250.60
2020,07,09,17,05,242.60
2020,07,09,17,06,236.50
2020,07,09,17,07,233.40
2020,07,09,17,08,229.10
2020,07,09,17,09,224.10
2020,07,09,17,10,216.10